• Em Portugal
  • Lista de países
  • Para 7 dias
  • Temperatura da água
  • Mapas de satélite
  • Mapa do tempo
  • Widgets de tempo
  • user-avatar
    Iniciar Sessão

    Previsão horária em Gaziantep

    Hoje, 19 Outubro, Quinta-feira

    Tempo Temperatura Precipitação Vento Pressão Humidade
    00:00 +15°C° 0 mm 1 m/s 674 mmHg 27%
    01:00 +15°C° 0 mm 1 m/s 674 mmHg 28%
    02:00 +14°C° 0 mm 1 m/s 674 mmHg 30%
    03:00 +14°C° 0 mm 1 m/s 674 mmHg 31%
    04:00 +13°C° 0 mm 1 m/s 674 mmHg 33%
    05:00 +13°C° 0 mm 1 m/s 674 mmHg 34%
    06:00 +14°C° 0 mm 1 m/s 674 mmHg 31%
    07:00 +16°C° 0 mm 2 m/s 675 mmHg 29%
    08:00 +18°C° 0 mm 2 m/s 676 mmHg 26%
    09:00 +19°C° 0 mm 2 m/s 676 mmHg 24%
    10:00 +20°C° 0 mm 2 m/s 676 mmHg 22%
    11:00 +23°C° 0 mm 2 m/s 676 mmHg 19%
    12:00 +23°C° 0 mm 2 m/s 676 mmHg 18%
    13:00 +24°C° 0 mm 2 m/s 676 mmHg 17%
    14:00 +24°C° 0 mm 1 m/s 676 mmHg 16%
    15:00 +23°C° 0 mm 1 m/s 675 mmHg 18%
    16:00 +21°C° 0 mm 1 m/s 675 mmHg 20%
    17:00 +20°C° 0 mm 1 m/s 674 mmHg 21%
    18:00 +19°C° 0 mm 1 m/s 674 mmHg 22%
    19:00 +19°C° 0 mm 1 m/s 674 mmHg 23%
    20:00 +18°C° 0 mm 1 m/s 674 mmHg 24%
    21:00 +16°C° 0 mm 1 m/s 674 mmHg 25%
    22:00 +16°C° 0 mm 1 m/s 674 mmHg 26%
    23:00 +15°C° 0 mm 1 m/s 674 mmHg 27%

    Amanhã, 20 Outubro, Sexta-feira

    Tempo Temperatura Precipitação Vento Pressão Humidade
    00:00 +15°C° 0 mm 1 m/s 674 mmHg 28%
    01:00 +14°C° 0 mm 1 m/s 673 mmHg 28%
    02:00 +14°C° 0 mm 1 m/s 673 mmHg 29%
    03:00 +14°C° 0 mm 1 m/s 673 mmHg 30%
    04:00 +13°C° 0 mm 1 m/s 673 mmHg 31%
    05:00 +13°C° 0 mm 1 m/s 673 mmHg 31%
    06:00 +15°C° 0 mm 1 m/s 674 mmHg 28%
    07:00 +18°C° 0 mm 1 m/s 674 mmHg 25%
    08:00 +19°C° 0 mm 1 m/s 675 mmHg 22%
    09:00 +21°C° 0 mm 1 m/s 675 mmHg 20%
    10:00 +22°C° 0 mm 1 m/s 676 mmHg 18%
    11:00 +24°C° 0 mm 1 m/s 676 mmHg 16%
    12:00 +24°C° 0 mm 1 m/s 675 mmHg 16%
    13:00 +24°C° 0 mm 1 m/s 675 mmHg 15%
    14:00 +25°C° 0 mm 1 m/s 675 mmHg 15%
    15:00 +23°C° 0 mm 1 m/s 674 mmHg 16%
    16:00 +22°C° 0 mm 1 m/s 674 mmHg 18%
    17:00 +21°C° 0 mm 1 m/s 673 mmHg 20%
    18:00 +20°C° 0 mm 1 m/s 674 mmHg 21%
    19:00 +19°C° 0 mm 1 m/s 674 mmHg 22%
    20:00 +18°C° 0 mm 1 m/s 674 mmHg 22%
    21:00 +16°C° 0 mm 0 m/s 673 mmHg 23%
    22:00 +15°C° 0 mm 0 m/s 673 mmHg 24%
    23:00 +15°C° 0 mm 0 m/s 673 mmHg 24%

    Depois de amanhã, 21 Outubro, Sábado

    Tempo Temperatura Precipitação Vento Pressão Humidade
    00:00 +15°C° 0 mm 1 m/s 673 mmHg 25%
    01:00 +15°C° 0 mm 1 m/s 673 mmHg 25%
    02:00 +14°C° 0 mm 1 m/s 672 mmHg 26%
    03:00 +14°C° 0 mm 1 m/s 672 mmHg 26%
    04:00 +14°C° 0 mm 1 m/s 672 mmHg 27%
    05:00 +14°C° 0 mm 1 m/s 672 mmHg 27%
    06:00 +15°C° 0 mm 1 m/s 672 mmHg 25%
    07:00 +18°C° 0 mm 1 m/s 673 mmHg 22%
    08:00 +20°C° 0 mm 1 m/s 674 mmHg 20%
    09:00 +21°C° 0 mm 1 m/s 674 mmHg 18%
    10:00 +22°C° 0 mm 1 m/s 674 mmHg 17%
    11:00 +24°C° 0 mm 1 m/s 674 mmHg 16%
    12:00 +24°C° 0 mm 1 m/s 674 mmHg 15%
    13:00 +24°C° 0 mm 1 m/s 673 mmHg 14%
    14:00 +25°C° 0 mm 2 m/s 673 mmHg 14%
    15:00 +23°C° 0 mm 2 m/s 673 mmHg 15%
    16:00 +21°C° 0 mm 2 m/s 672 mmHg 17%
    17:00 +19°C° 0 mm 2 m/s 672 mmHg 18%
    18:00 +20°C° 0 mm 1 m/s 672 mmHg 20%
    19:00 +19°C° 0 mm 1 m/s 672 mmHg 22%
    20:00 +18°C° 0 mm 1 m/s 672 mmHg 23%
    21:00 +16°C° 0 mm 1 m/s 672 mmHg 24%
    22:00 +16°C° 0 mm 1 m/s 671 mmHg 25%
    23:00 +15°C° 0 mm 1 m/s 671 mmHg 26%

    22 Outubro, Domingo

    Tempo Temperatura Precipitação Vento Pressão Humidade
    00:00 +14°C° 0 mm 1 m/s 671 mmHg 27%
    01:00 +14°C° 0 mm 1 m/s 671 mmHg 27%
    02:00 +14°C° 0 mm 1 m/s 671 mmHg 28%
    03:00 +13°C° 0 mm 1 m/s 670 mmHg 29%
    04:00 +13°C° 0 mm 1 m/s 670 mmHg 29%
    05:00 +12°C° 0 mm 1 m/s 670 mmHg 30%
    06:00 +14°C° 0 mm 1 m/s 671 mmHg 27%
    07:00 +16°C° 0 mm 1 m/s 672 mmHg 24%
    08:00 +19°C° 0 mm 1 m/s 672 mmHg 22%
    09:00 +20°C° 0 mm 1 m/s 672 mmHg 20%
    10:00 +21°C° 0 mm 1 m/s 673 mmHg 18%
    11:00 +23°C° 0 mm 1 m/s 673 mmHg 16%
    12:00 +23°C° 0 mm 1 m/s 672 mmHg 16%
    13:00 +24°C° 0 mm 1 m/s 672 mmHg 15%
    14:00 +24°C° 0 mm 1 m/s 671 mmHg 14%
    15:00 +23°C° 0 mm 1 m/s 671 mmHg 17%
    16:00 +21°C° 0 mm 1 m/s 671 mmHg 20%
    17:00 +20°C° 0 mm 1 m/s 670 mmHg 23%
    18:00 +19°C° 0 mm 1 m/s 670 mmHg 27%
    19:00 +18°C° 0 mm 1 m/s 670 mmHg 30%
    20:00 +16°C° 0 mm 1 m/s 670 mmHg 34%
    21:00 +15°C° 0 mm 1 m/s 670 mmHg 35%
    22:00 +15°C° 0 mm 1 m/s 670 mmHg 37%
    23:00 +14°C° 0 mm 1 m/s 670 mmHg 38%

    23 Outubro, Segunda-feira

    Tempo Temperatura Precipitação Vento Pressão Humidade
    00:00 +14°C° 0 mm 1 m/s 670 mmHg 37%
    01:00 +14°C° 0 mm 1 m/s 670 mmHg 37%
    02:00 +13°C° 0 mm 1 m/s 669 mmHg 37%
    03:00 +13°C° 0 mm 1 m/s 669 mmHg 35%
    04:00 +13°C° 0 mm 1 m/s 669 mmHg 34%
    05:00 +12°C° 0 mm 1 m/s 669 mmHg 33%
    06:00 +14°C° 0 mm 1 m/s 670 mmHg 29%
    07:00 +16°C° 0 mm 1 m/s 671 mmHg 25%
    08:00 +19°C° 0 mm 1 m/s 672 mmHg 22%
    09:00 +20°C° 0 mm 1 m/s 672 mmHg 20%
    10:00 +20°C° 0 mm 2 m/s 672 mmHg 19%
    11:00 +23°C° 0 mm 2 m/s 672 mmHg 18%
    12:00 +23°C° 0 mm 2 m/s 672 mmHg 18%
    13:00 +23°C° 0 mm 2 m/s 671 mmHg 17%
    14:00 +24°C° 0 mm 2 m/s 671 mmHg 17%
    15:00 +21°C° 0 mm 2 m/s 671 mmHg 20%
    16:00 +20°C° 0 mm 2 m/s 671 mmHg 22%
    17:00 +20°C° 0 mm 1 m/s 670 mmHg 25%
    18:00 +19°C° 0 mm 1 m/s 670 mmHg 27%
    19:00 +18°C° 0 mm 1 m/s 671 mmHg 30%
    20:00 +16°C° 0 mm 1 m/s 671 mmHg 32%
    21:00 +16°C° 0 mm 1 m/s 671 mmHg 33%
    22:00 +15°C° 0 mm 1 m/s 670 mmHg 34%
    23:00 +15°C° 0 mm 1 m/s 670 mmHg 35%

    24 Outubro, Terça-feira

    Tempo Temperatura Precipitação Vento Pressão Humidade
    00:00 +14°C° 0 mm 1 m/s 670 mmHg 35%
    01:00 +14°C° 0 mm 1 m/s 670 mmHg 34%
    02:00 +14°C° 0 mm 1 m/s 670 mmHg 34%
    03:00 +13°C° 0 mm 1 m/s 670 mmHg 33%
    04:00 +13°C° 0 mm 1 m/s 670 mmHg 32%
    05:00 +13°C° 0 mm 1 m/s 670 mmHg 31%
    06:00 +15°C° 0 mm 1 m/s 671 mmHg 28%
    07:00 +16°C° 0 mm 2 m/s 672 mmHg 26%
    08:00 +18°C° 0 mm 2 m/s 673 mmHg 24%
    09:00 +19°C° 0 mm 2 m/s 673 mmHg 23%
    10:00 +21°C° 0 mm 2 m/s 673 mmHg 23%
    11:00 +23°C° 0 mm 2 m/s 673 mmHg 23%
    12:00 +23°C° 0 mm 2 m/s 673 mmHg 22%
    13:00 +24°C° 0 mm 2 m/s 673 mmHg 21%
    14:00 +24°C° 0 mm 2 m/s 673 mmHg 20%
    15:00 +23°C° 0 mm 2 m/s 672 mmHg 22%
    16:00 +21°C° 0 mm 2 m/s 672 mmHg 24%
    17:00 +20°C° 0 mm 1 m/s 672 mmHg 26%
    18:00 +20°C° 0 mm 1 m/s 672 mmHg 27%
    19:00 +19°C° 0 mm 1 m/s 672 mmHg 28%
    20:00 +18°C° 0 mm 1 m/s 672 mmHg 30%
    21:00 +18°C° 0 mm 1 m/s 672 mmHg 30%
    22:00 +16°C° 0 mm 1 m/s 672 mmHg 31%
    23:00 +16°C° 0 mm 1 m/s 672 mmHg 31%
    Mostrar mais